• In Uzbekistan
  • List of Countries
  • For 7 days
  • Water Temperature
  • Satellite Maps
  • Weather Map
  • Weather Widgets
  • user-avatar
    Login

    Hourly Weather Csorna

    Today, 15 December, Friday

    Time Temperature Precipitation Wind Pressure Humidity
    00:00 +4°C° 0 mm 4 mps 740 mmHg 90%
    01:00 +3°C° 0 mm 3 mps 740 mmHg 91%
    02:00 +4°C° 0 mm 4 mps 739 mmHg 91%
    03:00 +4°C° 0 mm 4 mps 739 mmHg 91%
    04:00 +3°C° 0 mm 5 mps 738 mmHg 92%
    05:00 +5°C° 0 mm 5 mps 738 mmHg 91%
    06:00 +5°C° 0 mm 4 mps 738 mmHg 89%
    07:00 +5°C° 0 mm 4 mps 737 mmHg 88%
    08:00 +5°C° 0 mm 4 mps 738 mmHg 84%
    09:00 +6°C° 0 mm 4 mps 738 mmHg 80%
    10:00 +6°C° 0 mm 4 mps 739 mmHg 75%
    11:00 +6°C° 0.1 mm 4 mps 739 mmHg 72%
    12:00 +7°C° 0.1 mm 3 mps 739 mmHg 69%
    13:00 +7°C° 0.1 mm 3 mps 740 mmHg 66%
    14:00 +7°C° 0 mm 3 mps 740 mmHg 66%
    15:00 +7°C° 0 mm 3 mps 740 mmHg 66%
    16:00 +5°C° 0 mm 3 mps 741 mmHg 66%
    17:00 +5°C° 0 mm 3 mps 741 mmHg 67%
    18:00 +4°C° 0 mm 3 mps 740 mmHg 67%
    19:00 +4°C° 0 mm 3 mps 740 mmHg 68%
    20:00 +4°C° 0.1 mm 3 mps 741 mmHg 70%
    21:00 +3°C° 0.1 mm 3 mps 741 mmHg 71%
    22:00 +4°C° 0.1 mm 2 mps 741 mmHg 73%
    23:00 +3°C° 0.5 mm 3 mps 740 mmHg 73%

    Tomorrow, 16 December, Saturday

    Time Temperature Precipitation Wind Pressure Humidity
    00:00 +3°C° 0.5 mm 4 mps 740 mmHg 73%
    01:00 +3°C° 0.5 mm 4 mps 739 mmHg 73%
    02:00 +3°C° 0.4 mm 4 mps 739 mmHg 74%
    03:00 +3°C° 0.4 mm 4 mps 739 mmHg 76%
    04:00 +3°C° 0.4 mm 4 mps 739 mmHg 77%
    05:00 +3°C° 0.1 mm 4 mps 740 mmHg 77%
    06:00 +1°C° 0.1 mm 4 mps 740 mmHg 77%
    07:00 +1°C° 0.1 mm 4 mps 741 mmHg 77%
    08:00 +2°C° 0 mm 5 mps 741 mmHg 74%
    09:00 +2°C° 0 mm 5 mps 742 mmHg 72%
    10:00 +3°C° 0 mm 5 mps 742 mmHg 70%
    11:00 +3°C° 0 mm 5 mps 743 mmHg 68%
    12:00 +3°C° 0 mm 5 mps 743 mmHg 66%
    13:00 +5°C° 0 mm 5 mps 744 mmHg 64%
    14:00 +3°C° 0 mm 5 mps 744 mmHg 67%
    15:00 +3°C° 0 mm 4 mps 745 mmHg 69%
    16:00 +3°C° 0 mm 4 mps 745 mmHg 72%
    17:00 +1°C° 0 mm 4 mps 746 mmHg 73%
    18:00 +1°C° 0 mm 4 mps 747 mmHg 73%
    19:00 0°C° 0 mm 4 mps 747 mmHg 74%
    20:00 0°C° 0 mm 4 mps 748 mmHg 76%
    21:00 0°C° 0 mm 4 mps 749 mmHg 77%
    22:00 0°C° 0 mm 3 mps 749 mmHg 79%
    23:00 0°C° 0 mm 3 mps 750 mmHg 80%

    Day after tomorrow, 17 December, Sunday

    Time Temperature Precipitation Wind Pressure Humidity
    00:00 0°C° 0 mm 3 mps 750 mmHg 81%
    01:00 0°C° 0 mm 3 mps 750 mmHg 82%
    02:00 -1°C° 0 mm 4 mps 750 mmHg 82%
    03:00 -1°C° 0 mm 4 mps 751 mmHg 82%
    04:00 -1°C° 0 mm 4 mps 751 mmHg 82%
    05:00 -2°C° 0 mm 4 mps 751 mmHg 81%
    06:00 -2°C° 0 mm 4 mps 752 mmHg 81%
    07:00 -2°C° 0 mm 4 mps 752 mmHg 80%
    08:00 -1°C° 0 mm 4 mps 753 mmHg 76%
    09:00 0°C° 0 mm 5 mps 753 mmHg 71%
    10:00 +1°C° 0 mm 6 mps 754 mmHg 66%
    11:00 +2°C° 0 mm 6 mps 754 mmHg 64%
    12:00 +2°C° 0 mm 6 mps 754 mmHg 62%
    13:00 +3°C° 0 mm 6 mps 754 mmHg 60%
    14:00 +2°C° 0 mm 5 mps 754 mmHg 64%
    15:00 +1°C° 0 mm 4 mps 755 mmHg 67%
    16:00 0°C° 0 mm 4 mps 755 mmHg 71%
    17:00 0°C° 0 mm 4 mps 756 mmHg 72%
    18:00 -1°C° 0 mm 4 mps 756 mmHg 73%
    19:00 -1°C° 0 mm 4 mps 757 mmHg 74%
    20:00 -1°C° 0 mm 4 mps 757 mmHg 74%
    21:00 -1°C° 0 mm 4 mps 757 mmHg 74%
    22:00 -1°C° 0 mm 4 mps 758 mmHg 74%
    23:00 -1°C° 0 mm 4 mps 758 mmHg 74%

    18 December, Monday

    Time Temperature Precipitation Wind Pressure Humidity
    00:00 -2°C° 0 mm 4 mps 758 mmHg 74%
    01:00 -2°C° 0 mm 4 mps 758 mmHg 75%
    02:00 -2°C° 0 mm 4 mps 758 mmHg 74%
    03:00 -1°C° 0 mm 3 mps 758 mmHg 74%
    04:00 -1°C° 0 mm 3 mps 758 mmHg 74%
    05:00 0°C° 0 mm 3 mps 758 mmHg 74%
    06:00 0°C° 0 mm 3 mps 758 mmHg 73%
    07:00 +1°C° 0 mm 2 mps 758 mmHg 73%
    08:00 +1°C° 0.1 mm 3 mps 758 mmHg 70%
    09:00 +1°C° 0.1 mm 3 mps 757 mmHg 68%
    10:00 +1°C° 0.1 mm 3 mps 757 mmHg 65%
    11:00 +2°C° 0.1 mm 3 mps 757 mmHg 64%
    12:00 +2°C° 0.1 mm 3 mps 756 mmHg 63%
    13:00 +2°C° 0.1 mm 3 mps 756 mmHg 62%
    14:00 +2°C° 0.1 mm 3 mps 756 mmHg 65%
    15:00 +2°C° 0.1 mm 2 mps 756 mmHg 67%
    16:00 +2°C° 0.1 mm 2 mps 756 mmHg 70%
    17:00 +2°C° 0 mm 2 mps 756 mmHg 71%
    18:00 +2°C° 0 mm 2 mps 756 mmHg 72%
    19:00 +2°C° 0 mm 2 mps 757 mmHg 74%
    20:00 +2°C° 0.1 mm 2 mps 757 mmHg 75%
    21:00 +2°C° 0.1 mm 2 mps 758 mmHg 76%
    22:00 +1°C° 0.1 mm 3 mps 758 mmHg 77%
    23:00 +1°C° 0 mm 3 mps 758 mmHg 78%

    19 December, Tuesday

    Time Temperature Precipitation Wind Pressure Humidity
    00:00 +1°C° 0 mm 3 mps 758 mmHg 79%
    01:00 +1°C° 0 mm 3 mps 759 mmHg 81%
    02:00 0°C° 0.2 mm 4 mps 759 mmHg 80%
    03:00 0°C° 0.2 mm 4 mps 759 mmHg 80%
    04:00 0°C° 0.2 mm 4 mps 759 mmHg 80%
    05:00 +1°C° 0.3 mm 4 mps 760 mmHg 80%
    06:00 +1°C° 0.3 mm 4 mps 760 mmHg 80%
    07:00 +1°C° 0.3 mm 4 mps 761 mmHg 81%
    08:00 +1°C° 0.1 mm 4 mps 761 mmHg 80%
    09:00 +3°C° 0.1 mm 4 mps 762 mmHg 80%
    10:00 +3°C° 0.1 mm 4 mps 763 mmHg 80%
    11:00 +3°C° 0 mm 4 mps 763 mmHg 79%
    12:00 +4°C° 0 mm 4 mps 763 mmHg 78%
    13:00 +3°C° 0 mm 5 mps 763 mmHg 76%
    14:00 +3°C° 0 mm 4 mps 764 mmHg 79%
    15:00 +1°C° 0 mm 4 mps 764 mmHg 82%
    16:00 +1°C° 0 mm 3 mps 764 mmHg 85%
    17:00 +1°C° 0 mm 3 mps 765 mmHg 86%
    18:00 +1°C° 0 mm 3 mps 765 mmHg 86%
    19:00 0°C° 0 mm 3 mps 766 mmHg 86%
    20:00 +1°C° 0 mm 2 mps 766 mmHg 86%
    21:00 +1°C° 0 mm 2 mps 766 mmHg 85%
    22:00 +1°C° 0 mm 2 mps 766 mmHg 84%
    23:00 +1°C° 0 mm 2 mps 766 mmHg 85%

    20 December, Wednesday

    Time Temperature Precipitation Wind Pressure Humidity
    00:00 +1°C° 0 mm 2 mps 766 mmHg 86%
    01:00 +1°C° 0 mm 2 mps 766 mmHg 87%
    02:00 +1°C° 0 mm 2 mps 766 mmHg 88%
    03:00 +1°C° 0 mm 2 mps 765 mmHg 89%
    04:00 +1°C° 0 mm 2 mps 765 mmHg 89%
    05:00 +1°C° 0.1 mm 2 mps 765 mmHg 89%
    06:00 +1°C° 0.1 mm 2 mps 765 mmHg 89%
    07:00 +2°C° 0.1 mm 2 mps 765 mmHg 88%
    08:00 +1°C° 0.2 mm 3 mps 765 mmHg 86%
    09:00 +2°C° 0.2 mm 3 mps 765 mmHg 84%
    10:00 +1°C° 0.2 mm 4 mps 765 mmHg 83%
    11:00 +1°C° 0.4 mm 4 mps 764 mmHg 82%
    12:00 +3°C° 0.4 mm 4 mps 764 mmHg 82%
    13:00 +3°C° 0.4 mm 4 mps 763 mmHg 81%
    14:00 +3°C° 0.4 mm 4 mps 763 mmHg 82%
    15:00 +3°C° 0.4 mm 3 mps 763 mmHg 83%
    16:00 +2°C° 0.4 mm 3 mps 763 mmHg 84%
    17:00 +3°C° 0.5 mm 3 mps 763 mmHg 85%
    18:00 +3°C° 0.5 mm 3 mps 763 mmHg 86%
    19:00 +3°C° 0.5 mm 3 mps 763 mmHg 86%
    20:00 +3°C° 0.4 mm 4 mps 763 mmHg 86%
    21:00 +3°C° 0.4 mm 4 mps 763 mmHg 87%
    22:00 +3°C° 0.4 mm 4 mps 764 mmHg 87%
    23:00 +3°C° 0.1 mm 4 mps 763 mmHg 87%
    Show more